| time (UTC) | temp F | wind direction | speed knots | gust knots | rain 1hr in | rain 24hr in | rain mn in | humidity % | barometer mb |
| 20260508195056 | 59 | 45 | 2.6 | 4.3 | 0.00 | 0.11 | 0.11 | 71 | 1010.4 |
| 20260508194016 | 60 | 44 | 2.6 | 4.3 | 0.00 | 0.11 | 0.11 | 70 | 1010.2 |
| 20260508193016 | 60 | 44 | 1.7 | 3.5 | 0.00 | 0.11 | 0.11 | 69 | 1010.1 |
| 20260508192016 | 61 | 59 | 0.9 | 3.5 | 0.00 | 0.11 | 0.11 | 68 | 1010.1 |
| 20260508191016 | 61 | 49 | 2.6 | 4.3 | 0.00 | 0.11 | 0.11 | 66 | 1010.0 |
| 20260508190016 | 62 | 37 | 2.6 | 4.3 | 0.00 | 0.11 | 0.11 | 64 | 1010.1 |
| 20260508185016 | 63 | 58 | 1.7 | 3.5 | 0.00 | 0.11 | 0.11 | 63 | 1010.0 |
| 20260508184036 | 63 | 52 | 2.6 | 5.2 | 0.00 | 0.11 | 0.11 | 62 | 1009.9 |
| 20260508183016 | 64 | 66 | 1.7 | 5.2 | 0.00 | 0.11 | 0.11 | 62 | 1010.0 |
| 20260508182017 | 64 | 42 | 3.5 | 5.2 | 0.00 | 0.11 | 0.11 | 60 | 1009.9 |
| 20260508181016 | 64 | 47 | 2.6 | 5.2 | 0.00 | 0.11 | 0.11 | 59 | 1009.9 |
| 20260508180016 | 65 | 48 | 3.5 | 6.1 | 0.00 | 0.11 | 0.11 | 59 | 1009.9 |
| 20260508175017 | 65 | 47 | 2.6 | 6.1 | 0.00 | 0.11 | 0.11 | 57 | 1009.9 |
| 20260508174016 | 65 | 21 | 1.7 | 3.5 | 0.00 | 0.11 | 0.11 | 57 | 1010.0 |
| 20260508173016 | 65 | 46 | 2.6 | 5.2 | 0.00 | 0.11 | 0.11 | 57 | 1010.0 |
| 20260508172016 | 65 | 45 | 0.0 | 2.6 | 0.00 | 0.11 | 0.11 | 57 | 1010.0 |
| 20260508171017 | 65 | 46 | 0.0 | 3.5 | 0.00 | 0.11 | 0.11 | 56 | 1010.0 |
| 20260508170016 | 66 | 46 | 1.7 | 3.5 | 0.00 | 0.11 | 0.11 | 56 | 1010.1 |
| 20260508165017 | 67 | 106 | 0.9 | 4.3 | 0.00 | 0.11 | 0.11 | 53 | 1010.2 |
| 20260508164016 | 67 | 118 | 1.7 | 4.3 | 0.00 | 0.11 | 0.11 | 53 | 1010.3 |
| 20260508163016 | 66 | 119 | 0.9 | 3.5 | 0.00 | 0.11 | 0.11 | 55 | 1010.3 |
| 20260508162016 | 66 | 105 | 0.9 | 4.3 | 0.00 | 0.11 | 0.11 | 54 | 1010.3 |
| 20260508161017 | 66 | 263 | 0.9 | 6.1 | 0.00 | 0.11 | 0.11 | 56 | 1010.3 |
| 20260508160016 | 65 | 302 | 2.6 | 7.0 | 0.00 | 0.12 | 0.11 | 58 | 1010.2 |
| 20260508155016 | 65 | 297 | 3.5 | 6.1 | 0.00 | 0.13 | 0.11 | 58 | 1010.2 |
| 20260508154016 | 64 | 273 | 3.5 | 7.0 | 0.00 | 0.13 | 0.11 | 57 | 1010.2 |
| 20260508153036 | 65 | 272 | 3.5 | 7.8 | 0.00 | 0.14 | 0.11 | 56 | 1010.3 |
| 20260508152017 | 66 | 256 | 3.5 | 7.0 | 0.00 | 0.16 | 0.11 | 55 | 1010.4 |
| 20260508151016 | 65 | 253 | 4.3 | 8.7 | 0.00 | 0.16 | 0.11 | 57 | 1010.5 |
| 20260508150016 | 64 | 257 | 2.6 | 11.3 | 0.00 | 0.16 | 0.11 | 62 | 1010.7 |
| 20260508145016 | 63 | 260 | 2.6 | 5.2 | 0.00 | 0.16 | 0.11 | 69 | 1010.7 |
| 20260508144016 | 62 | 264 | 3.5 | 7.0 | 0.00 | 0.16 | 0.11 | 73 | 1010.8 |
| 20260508143016 | 62 | 245 | 3.5 | 8.7 | 0.00 | 0.16 | 0.11 | 80 | 1010.8 |
| 20260508142037 | 59 | 267 | 3.5 | 6.1 | 0.00 | 0.16 | 0.11 | 91 | 1010.7 |
| 20260508141016 | 58 | 237 | 2.6 | 7.8 | 0.00 | 0.16 | 0.11 | 91 | 1010.7 |
| 20260508140017 | 58 | 259 | 1.7 | 6.1 | 0.00 | 0.16 | 0.11 | 93 | 1010.9 |
| 20260508135017 | 58 | 267 | 1.7 | 4.3 | 0.00 | 0.16 | 0.11 | 91 | 1010.9 |
| 20260508134036 | 58 | 141 | 1.7 | 5.2 | 0.00 | 0.16 | 0.11 | 92 | 1011.0 |
| 20260508133017 | 58 | 97 | 0.9 | 4.3 | 0.00 | 0.17 | 0.11 | 93 | 1011.0 |
| 20260508132017 | 56 | 271 | 0.9 | 2.6 | 0.00 | 0.22 | 0.11 | 92 | 1010.9 |
| 20260508131017 | 57 | 252 | 0.0 | 2.6 | 0.08 | 0.24 | 0.11 | 94 | 1011.1 |
| 20260508130016 | 55 | 311 | 0.0 | 2.6 | 0.09 | 0.24 | 0.11 | 94 | 1011.1 |
| 20260508125016 | 55 | 304 | 1.7 | 5.2 | 0.09 | 0.29 | 0.11 | 93 | 1011.2 |
| 20260508124016 | 55 | 7 | 0.9 | 4.3 | 0.09 | 0.57 | 0.11 | 95 | 1011.3 |
| 20260508123017 | 54 | 358 | 2.6 | 5.2 | 0.09 | 0.57 | 0.11 | 93 | 1011.2 |
| 20260508122017 | 55 | 345 | 1.7 | 3.5 | 0.09 | 0.57 | 0.11 | 91 | 1012.1 |
| 20260508121017 | 56 | 67 | 0.9 | 3.5 | 0.02 | 0.49 | 0.03 | 84 | 1011.9 |
| 20260508120017 | 56 | 335 | 0.9 | 4.3 | 0.01 | 0.48 | 0.02 | 85 | 1011.8 |
| 20260508115037 | 56 | 355 | 1.7 | 4.3 | 0.00 | 0.47 | 0.02 | 88 | 1012.0 |
| 20260508114017 | 56 | 45 | 2.6 | 5.2 | 0.00 | 0.47 | 0.02 | 88 | 1011.9 |
| 20260508113016 | 56 | 29 | 2.6 | 5.2 | 0.01 | 0.47 | 0.02 | 87 | 1012.1 |
| 20260508112017 | 56 | 32 | 1.7 | 4.3 | 0.02 | 0.47 | 0.02 | 88 | 1012.0 |
| 20260508111017 | 55 | 60 | 2.6 | 3.5 | 0.02 | 0.47 | 0.02 | 88 | 1012.0 |
| 20260508110016 | 54 | 349 | 1.7 | 3.5 | 0.02 | 0.47 | 0.02 | 88 | 1012.2 |
| 20260508105057 | 54 | 276 | 1.7 | 3.5 | 0.02 | 0.47 | 0.02 | 87 | 1012.3 |
| 20260508104017 | 55 | 349 | 0.9 | 4.3 | 0.02 | 0.47 | 0.02 | 84 | 1012.2 |
| 20260508103016 | 56 | 273 | 0.9 | 2.6 | 0.01 | 0.46 | 0.01 | 80 | 1012.4 |
| 20260508102016 | 57 | 295 | 0.9 | 2.6 | 0.00 | 0.46 | 0.00 | 78 | 1012.4 |
| 20260508101017 | 57 | 356 | 0.9 | 3.5 | 0.00 | 0.46 | 0.00 | 76 | 1012.3 |
| 20260508100017 | 57 | 50 | 0.9 | 3.5 | 0.00 | 0.46 | 0.00 | 75 | 1012.2 |
| 20260508095017 | 57 | 38 | 1.7 | 5.2 | 0.00 | 0.46 | 0.00 | 75 | 1012.1 |
| 20260508094016 | 57 | 58 | 0.9 | 4.3 | 0.00 | 0.46 | 0.00 | 75 | 1012.3 |
| 20260508093016 | 57 | 54 | 1.7 | 4.3 | 0.00 | 0.46 | 0.00 | 75 | 1012.2 |
| 20260508092017 | 56 | 353 | 0.9 | 2.6 | 0.00 | 0.46 | 0.00 | 77 | 1012.2 |
| 20260508091017 | 55 | 13 | 0.9 | 3.5 | 0.00 | 0.46 | 0.00 | 78 | 1012.3 |
| 20260508090017 | 54 | 18 | 0.9 | 3.5 | 0.00 | 0.46 | 0.00 | 80 | 1012.2 |
| 20260508085017 | 54 | 125 | 1.7 | 3.5 | 0.00 | 0.46 | 0.00 | 81 | 1012.1 |
| 20260508084016 | 54 | 137 | 0.0 | 1.7 | 0.00 | 0.46 | 0.00 | 81 | 1012.3 |
| 20260508083037 | 53 | 131 | 0.9 | 3.5 | 0.00 | 0.46 | 0.00 | 83 | 1012.2 |
| 20260508082017 | 52 | 44 | 2.6 | 4.3 | 0.00 | 0.46 | 0.00 | 84 | 1012.0 |
| 20260508081017 | 52 | 58 | 2.6 | 6.1 | 0.00 | 0.46 | 0.00 | 84 | 1011.8 |
| 20260508080017 | 51 | 53 | 2.6 | 4.3 | 0.00 | 0.46 | 0.00 | 85 | 1012.0 |
| 20260508075017 | 51 | 68 | 1.7 | 3.5 | 0.00 | 0.46 | 0.00 | 85 | 1012.1 |
| 20260508074017 | 50 | 43 | 0.9 | 3.5 | 0.00 | 0.46 | 0.00 | 86 | 1012.1 |
| 20260508073017 | 50 | 48 | 1.7 | 3.5 | 0.00 | 0.46 | 0.00 | 87 | 1012.1 |
| 20260508072017 | 49 | 48 | 1.7 | 3.5 | 0.00 | 0.46 | 0.00 | 88 | 1012.0 |
| 20260508071017 | 49 | 70 | 0.9 | 3.5 | 0.00 | 0.46 | 0.00 | 89 | 1012.0 |
| 20260508070017 | 48 | 45 | 2.6 | 5.2 | 0.00 | 0.46 | 0.00 | 90 | 1011.8 |
| 20260508065017 | 48 | 46 | 2.6 | 5.2 | 0.00 | 0.46 | 0.00 | 90 | 1011.6 |
| 20260508064017 | 48 | 47 | 3.5 | 7.0 | 0.00 | 0.46 | 0.00 | 90 | 1011.9 |
| 20260508063017 | 48 | 50 | 3.5 | 7.8 | 0.00 | 0.46 | 0.00 | 90 | 1011.8 |
| 20260508062017 | 48 | 44 | 3.5 | 7.0 | 0.00 | 0.46 | 0.00 | 90 | 1011.8 |
| 20260508061016 | 48 | 53 | 3.5 | 7.0 | 0.00 | 0.46 | 0.00 | 90 | 1011.6 |
| 20260508060017 | 48 | 50 | 3.5 | 6.1 | 0.00 | 0.46 | 0.00 | 90 | 1011.5 |
| 20260508055016 | 48 | 52 | 2.6 | 7.0 | 0.00 | 0.46 | 0.00 | 89 | 1011.6 |
| 20260508054017 | 48 | 50 | 3.5 | 6.1 | 0.00 | 0.46 | 0.00 | 89 | 1011.6 |
| 20260508053017 | 48 | 49 | 2.6 | 5.2 | 0.00 | 0.46 | 0.00 | 89 | 1011.7 |
| 20260508052017 | 48 | 50 | 2.6 | 5.2 | 0.00 | 0.46 | 0.00 | 89 | 1011.6 |
| 20260508051017 | 48 | 94 | 0.9 | 5.2 | 0.00 | 0.46 | 0.00 | 89 | 1011.3 |
| 20260508050017 | 48 | 56 | 1.7 | 4.3 | 0.00 | 0.46 | 0.00 | 89 | 1011.2 |
| 20260508045017 | 47 | 80 | 1.7 | 4.3 | 0.00 | 0.46 | 0.00 | 89 | 1011.1 |
| 20260508044017 | 47 | 67 | 1.7 | 4.3 | 0.00 | 0.46 | 0.00 | 89 | 1010.8 |
| 20260508043020 | 47 | 60 | 1.7 | 4.3 | 0.00 | 0.46 | 0.00 | 89 | 1010.8 |
| 20260508042017 | 48 | 80 | 2.6 | 3.5 | 0.00 | 0.46 | 0.00 | 89 | 1010.7 |
| 20260508041017 | 48 | 73 | 1.7 | 3.5 | 0.00 | 0.46 | 0.00 | 88 | 1010.6 |
| 20260508040017 | 48 | 69 | 2.6 | 5.2 | 0.00 | 0.46 | 0.00 | 88 | 1010.5 |
| 20260508035017 | 48 | 77 | 1.7 | 3.5 | 0.00 | 0.46 | 0.00 | 88 | 1010.5 |
| 20260508034017 | 48 | 63 | 1.7 | 4.3 | 0.00 | 0.46 | 0.00 | 88 | 1010.6 |
| 20260508033017 | 48 | 46 | 1.7 | 4.3 | 0.00 | 0.46 | 0.00 | 89 | 1010.6 |
| 20260508032017 | 48 | 49 | 2.6 | 4.3 | 0.00 | 0.46 | 0.00 | 89 | 1010.6 |
| 20260508031017 | 48 | 63 | 1.7 | 5.2 | 0.00 | 0.46 | 0.00 | 89 | 1010.8 |
| 20260508030017 | 48 | 54 | 1.7 | 5.2 | 0.00 | 0.46 | 0.00 | 89 | 1010.6 |
| 20260508025017 | 48 | 81 | 1.7 | 4.3 | 0.00 | 0.46 | 0.00 | 90 | 1010.5 |
| 20260508024017 | 48 | 94 | 1.7 | 6.1 | 0.00 | 0.46 | 0.00 | 90 | 1010.5 |
| 20260508023017 | 48 | 60 | 2.6 | 6.1 | 0.00 | 0.46 | 0.00 | 90 | 1010.5 |
| 20260508022017 | 48 | 46 | 4.3 | 7.8 | 0.00 | 0.46 | 0.00 | 89 | 1010.6 |
| 20260508021017 | 48 | 58 | 3.5 | 6.1 | 0.00 | 0.46 | 0.00 | 89 | 1010.4 |
| 20260508020017 | 48 | 57 | 3.5 | 7.8 | 0.00 | 0.46 | 0.00 | 89 | 1010.6 |
| 20260508015017 | 49 | 60 | 3.5 | 6.1 | 0.00 | 0.46 | 0.00 | 89 | 1010.7 |
| 20260508014017 | 49 | 62 | 2.6 | 6.1 | 0.00 | 0.46 | 0.00 | 89 | 1010.6 |
| 20260508013017 | 49 | 50 | 2.6 | 6.1 | 0.00 | 0.46 | 0.00 | 89 | 1010.8 |
| 20260508012015 | 49 | 48 | 4.3 | 7.0 | 0.00 | 0.46 | 0.00 | 89 | 1010.9 |
| 20260508011017 | 49 | 69 | 1.7 | 6.1 | 0.00 | 0.46 | 0.00 | 89 | 1011.6 |
| 20260508010017 | 49 | 50 | 3.5 | 7.0 | 0.00 | 0.46 | 0.00 | 89 | 1011.7 |
| 20260508005017 | 49 | 50 | 4.3 | 7.0 | 0.00 | 0.46 | 0.00 | 89 | 1011.9 |
| 20260508004037 | 50 | 47 | 2.6 | 5.2 | 0.00 | 0.46 | 0.00 | 88 | 1012.1 |
| 20260508003037 | 50 | 40 | 1.7 | 4.3 | 0.00 | 0.46 | 0.00 | 87 | 1012.2 |
| 20260508002037 | 51 | 77 | 1.7 | 3.5 | 0.00 | 0.46 | 0.00 | 86 | 1012.3 |
| 20260508001018 | 51 | 77 | 1.7 | 2.6 | 0.00 | 0.46 | 0.00 | 86 | 1012.7 |
| 20260508000017 | 51 | 78 | 1.7 | 3.5 | 0.00 | 0.46 | 0.00 | 86 | 1012.8 |
| 20260507235017 | 51 | 79 | 0.9 | 3.5 | 0.00 | 0.46 | 0.46 | 85 | 1012.7 |
| 20260507234017 | 51 | 79 | 0.9 | 2.6 | 0.00 | 0.46 | 0.46 | 86 | 1012.8 |
| 20260507233017 | 51 | 79 | 0.9 | 1.7 | 0.00 | 0.46 | 0.46 | 87 | 1012.9 |
| 20260507232016 | 51 | 79 | 0.9 | 2.6 | 0.00 | 0.46 | 0.46 | 87 | 1013.1 |
| 20260507231017 | 51 | 79 | 1.7 | 3.5 | 0.00 | 0.46 | 0.46 | 87 | 1013.1 |
| 20260507230016 | 51 | 79 | 0.9 | 1.7 | 0.00 | 0.46 | 0.46 | 87 | 1013.1 |
| 20260507225016 | 51 | 81 | 1.7 | 3.5 | 0.00 | 0.46 | 0.46 | 87 | 1013.2 |
| 20260507224016 | 51 | 98 | 0.9 | 1.7 | 0.00 | 0.46 | 0.46 | 87 | 1013.1 |
| 20260507223016 | 51 | 98 | 0.9 | 1.7 | 0.00 | 0.46 | 0.46 | 87 | 1013.1 |
| 20260507222017 | 51 | 98 | 0.9 | 2.6 | 0.00 | 0.46 | 0.46 | 88 | 1013.1 |
| 20260507221016 | 51 | 105 | 0.0 | 1.7 | 0.00 | 0.46 | 0.46 | 87 | 1013.0 |
| 20260507220016 | 51 | 0.0 | 0.0 | 0.00 | 0.46 | 0.46 | 87 | 1013.1 | |
| 20260507215016 | 51 | 0.0 | 0.9 | 0.00 | 0.46 | 0.46 | 87 | 1013.0 | |
| 20260507214016 | 51 | 0.0 | 0.0 | 0.00 | 0.46 | 0.46 | 88 | 1012.9 | |
| 20260507213016 | 51 | 0.0 | 0.0 | 0.00 | 0.46 | 0.46 | 87 | 1012.7 | |
| 20260507212017 | 51 | 0.0 | 0.0 | 0.00 | 0.46 | 0.46 | 86 | 1012.7 | |
| 20260507211017 | 52 | 0.0 | 0.0 | 0.00 | 0.46 | 0.46 | 84 | 1012.4 | |
| 20260507210016 | 53 | 0.0 | 0.0 | 0.00 | 0.46 | 0.46 | 82 | 1012.3 | |
| 20260507205017 | 53 | 0.0 | 0.9 | 0.00 | 0.46 | 0.46 | 79 | 1012.1 | |
| 20260507204017 | 54 | 105 | 0.0 | 1.7 | 0.00 | 0.46 | 0.46 | 79 | 1011.8 |
| 20260507203016 | 54 | 105 | 0.9 | 2.6 | 0.00 | 0.46 | 0.46 | 78 | 1011.7 |
| 20260507202017 | 54 | 106 | 0.0 | 1.7 | 0.00 | 0.46 | 0.46 | 78 | 1011.6 |
| 20260507201017 | 55 | 93 | 1.7 | 5.2 | 0.00 | 0.46 | 0.46 | 77 | 1011.4 |
| 20260507200016 | 55 | 108 | 1.7 | 4.3 | 0.00 | 0.46 | 0.46 | 77 | 1011.3 |